Time,TemperatureF,DewpointF,PressureIn,WindDirection,WindDirectionDegrees,WindSpeedMPH,WindSpeedGustMPH,Humidity,HourlyPrecipIn,Conditions,Clouds,dailyrainin,SoftwareType,DateUTC
2013-03-25 05:50:00,69.4,61.9,29.98,SSE,157,2.0,15.0,77,0.00,,,0.00,Weather View 32 v70,2013-03-25 15:50:00,
2013-03-25 05:55:00,69.1,61.9,29.98,South,180,1.0,15.0,78,0.00,,,0.00,Weather View 32 v70,2013-03-25 15:55:00,
2013-03-25 06:00:00,68.7,61.9,29.98,South,183,2.0,15.0,79,0.00,,,0.00,Weather View 32 v70,2013-03-25 16:00:00,
2013-03-25 06:05:00,68.5,61.7,29.99,SSW,213,4.0,15.0,79,0.00,,,0.00,Weather View 32 v70,2013-03-25 16:05:00,
2013-03-25 06:10:00,68.6,62.2,29.99,South,184,5.0,15.0,80,0.00,,,0.00,Weather View 32 v70,2013-03-25 16:10:00,
2013-03-25 06:15:00,68.4,62.0,29.99,WSW,239,3.0,15.0,80,0.00,,,0.00,Weather View 32 v70,2013-03-25 16:15:00,
2013-03-25 06:20:00,68.5,62.1,29.99,WSW,239,4.0,12.0,80,0.00,,,0.00,Weather View 32 v70,2013-03-25 16:20:00,
2013-03-25 06:25:00,68.5,62.1,29.99,NNW,342,0.0,10.0,80,0.00,,,0.00,Weather View 32 v70,2013-03-25 16:25:00,
2013-03-25 06:30:00,68.5,62.1,29.99,North,349,5.0,10.0,80,0.00,,,0.00,Weather View 32 v70,2013-03-25 16:30:00,
2013-03-25 06:37:00,68.9,62.1,30.00,NNW,341,11.0,11.0,79,0.00,,,0.00,Weather View 32 v70,2013-03-25 16:37:00,
2013-03-25 06:43:00,69.6,62.8,30.00,NW,319,8.0,15.0,79,0.00,,,0.00,Weather View 32 v70,2013-03-25 16:43:00,
2013-03-25 06:48:00,69.9,62.7,30.00,NW,320,7.0,17.0,78,0.00,,,0.00,Weather View 32 v70,2013-03-25 16:48:00,
2013-03-25 06:53:00,70.1,62.9,30.01,NW,319,2.0,17.0,78,0.00,,,0.00,Weather View 32 v70,2013-03-25 16:53:00,
2013-03-25 06:58:00,70.2,63.0,30.00,NNW,330,7.0,17.0,78,0.00,,,0.00,Weather View 32 v70,2013-03-25 16:58:00,
2013-03-25 07:06:00,70.3,63.1,30.00,North,10,8.0,17.0,78,0.00,,,0.00,Weather View 32 v70,2013-03-25 17:06:00,
2013-03-25 07:11:00,69.9,62.7,30.01,NE,55,2.0,17.0,78,0.00,,,0.00,Weather View 32 v70,2013-03-25 17:11:00,
2013-03-25 07:16:00,69.4,62.6,30.01,ENE,58,0.0,17.0,79,0.00,,,0.00,Weather View 32 v70,2013-03-25 17:16:00,
2013-03-25 07:22:00,69.3,62.8,30.01,North,6,2.0,17.0,80,0.00,,,0.00,Weather View 32 v70,2013-03-25 17:22:00,
2013-03-25 07:30:00,69.2,63.5,30.01,SE,145,4.0,17.0,82,0.00,,,0.00,Weather View 32 v70,2013-03-25 17:30:00,
2013-03-25 07:35:00,69.1,63.7,30.01,ENE,62,2.0,17.0,83,0.00,,,0.00,Weather View 32 v70,2013-03-25 17:35:00,
2013-03-25 07:40:00,69.0,63.6,30.02,NNW,346,0.0,17.0,83,0.00,,,0.00,Weather View 32 v70,2013-03-25 17:40:00,
2013-03-25 07:45:00,69.3,64.2,30.02,NE,42,5.0,17.0,84,0.00,,,0.00,Weather View 32 v70,2013-03-25 17:45:00,
2013-03-25 07:50:00,69.8,64.0,30.02,North,356,9.0,13.0,82,0.00,,,0.00,Weather View 32 v70,2013-03-25 17:50:00,
2013-03-25 08:00:00,70.9,63.3,30.02,NNE,20,13.0,16.0,77,0.00,,,0.00,Weather View 32 v70,2013-03-25 18:00:00,
2013-03-25 08:05:00,70.9,64.0,30.03,NNE,19,12.0,16.0,79,0.00,,,0.00,Weather View 32 v70,2013-03-25 18:05:00,
2013-03-25 08:10:00,70.7,64.2,30.02,NNE,12,15.0,16.0,80,0.00,,,0.00,Weather View 32 v70,2013-03-25 18:10:00,
2013-03-25 08:15:00,70.2,64.8,30.02,NNE,18,16.0,22.0,83,0.00,,,0.00,Weather View 32 v70,2013-03-25 18:15:00,
2013-03-25 08:20:00,70.1,65.0,30.03,NNE,28,15.0,22.0,84,0.00,,,0.00,Weather View 32 v70,2013-03-25 18:20:00,
2013-03-25 08:30:00,70.1,65.0,30.03,NNE,23,14.0,22.0,84,0.00,,,0.00,Weather View 32 v70,2013-03-25 18:30:00,
2013-03-25 08:38:00,70.1,65.0,30.03,NNE,20,15.0,22.0,84,0.00,,,0.00,Weather View 32 v70,2013-03-25 18:38:00,
2013-03-25 08:43:00,70.4,65.0,30.03,NNE,13,16.0,22.0,83,0.00,,,0.00,Weather View 32 v70,2013-03-25 18:43:00,
2013-03-25 08:48:00,70.6,64.8,30.03,NE,41,17.0,22.0,82,0.00,,,0.00,Weather View 32 v70,2013-03-25 18:48:00,
2013-03-25 08:53:00,70.8,64.7,30.04,North,355,14.0,22.0,81,0.00,,,0.00,Weather View 32 v70,2013-03-25 18:53:00,
2013-03-25 08:58:00,71.4,65.2,30.03,NNE,16,15.0,22.0,81,0.00,,,0.00,Weather View 32 v70,2013-03-25 18:58:00,
2013-03-25 09:03:00,71.2,65.4,30.03,North,10,10.0,22.0,82,0.00,,,0.00,Weather View 32 v70,2013-03-25 19:03:00,
2013-03-25 09:08:00,71.7,66.2,30.03,NNE,33,21.0,22.0,83,0.00,,,0.00,Weather View 32 v70,2013-03-25 19:08:00,
2013-03-25 09:13:00,71.2,65.8,30.03,NNE,14,15.0,22.0,83,0.00,,,0.00,Weather View 32 v70,2013-03-25 19:13:00,
2013-03-25 09:18:00,71.3,65.5,30.03,NNE,20,18.0,22.0,82,0.00,,,0.00,Weather View 32 v70,2013-03-25 19:18:00,
2013-03-25 09:23:00,71.0,65.2,30.03,North,1,23.0,26.0,82,0.00,,,0.00,Weather View 32 v70,2013-03-25 19:23:00,
2013-03-25 09:29:00,70.5,65.1,30.03,NNE,15,16.0,26.0,83,0.00,,,0.00,Weather View 32 v70,2013-03-25 19:29:00,
2013-03-25 09:34:00,70.4,65.3,30.03,North,9,22.0,26.0,84,0.00,,,0.00,Weather View 32 v70,2013-03-25 19:34:00,
2013-03-25 09:39:00,70.5,65.4,30.04,North,360,18.0,26.0,84,0.00,,,0.00,Weather View 32 v70,2013-03-25 19:39:00,
2013-03-25 09:44:00,70.5,65.8,30.04,NNE,25,16.0,26.0,85,0.00,,,0.00,Weather View 32 v70,2013-03-25 19:44:00,
2013-03-25 09:49:00,70.4,65.7,30.03,North,5,20.0,26.0,85,0.00,,,0.00,Weather View 32 v70,2013-03-25 19:49:00,
2013-03-25 09:54:00,70.6,65.9,30.03,North,11,20.0,26.0,85,0.00,,,0.00,Weather View 32 v70,2013-03-25 19:54:00,
2013-03-25 09:59:00,70.2,65.8,30.03,North,359,21.0,27.0,86,0.00,,,0.00,Weather View 32 v70,2013-03-25 19:59:00,
2013-03-25 10:04:00,70.4,66.0,30.03,North,349,17.0,27.0,86,0.00,,,0.00,Weather View 32 v70,2013-03-25 20:04:00,
2013-03-25 10:09:00,70.5,65.8,30.03,North,351,17.0,27.0,85,0.00,,,0.00,Weather View 32 v70,2013-03-25 20:09:00,
2013-03-25 10:14:00,70.7,66.3,30.03,North,6,17.0,27.0,86,0.00,,,0.00,Weather View 32 v70,2013-03-25 20:14:00,
2013-03-25 10:19:00,70.8,66.4,30.03,NNE,19,15.0,27.0,86,0.00,,,0.00,Weather View 32 v70,2013-03-25 20:19:00,
2013-03-25 10:24:00,71.0,66.6,30.04,NW,324,4.0,27.0,86,0.00,,,0.00,Weather View 32 v70,2013-03-25 20:24:00,
2013-03-25 10:29:00,71.1,66.0,30.03,North,349,13.0,27.0,84,0.00,,,0.00,Weather View 32 v70,2013-03-25 20:29:00,
2013-03-25 10:34:00,70.9,65.8,30.03,NW,305,12.0,27.0,84,0.00,,,0.00,Weather View 32 v70,2013-03-25 20:34:00,
2013-03-25 10:39:00,71.0,66.2,30.03,North,349,11.0,27.0,85,0.00,,,0.00,Weather View 32 v70,2013-03-25 20:39:00,
2013-03-25 10:44:00,71.2,66.4,30.03,NNW,337,12.0,27.0,85,0.00,,,0.00,Weather View 32 v70,2013-03-25 20:44:00,
2013-03-25 10:49:00,70.8,66.4,30.03,NNE,15,11.0,27.0,86,0.00,,,0.00,Weather View 32 v70,2013-03-25 20:49:00,
2013-03-25 10:54:00,70.3,65.9,30.03,NW,324,9.0,27.0,86,0.00,,,0.00,Weather View 32 v70,2013-03-25 20:54:00,
2013-03-25 10:59:00,70.2,66.1,30.03,NW,326,13.0,23.0,87,0.00,,,0.01,Weather View 32 v70,2013-03-25 20:59:00,
2013-03-25 11:04:00,70.1,66.4,30.03,NNW,328,13.0,23.0,88,0.01,,,0.01,Weather View 32 v70,2013-03-25 21:04:00,
2013-03-25 11:09:00,70.3,66.6,30.03,NNE,14,9.0,23.0,88,0.01,,,0.01,Weather View 32 v70,2013-03-25 21:09:00,
2013-03-25 11:14:00,70.6,66.9,30.03,NW,323,5.0,23.0,88,0.01,,,0.01,Weather View 32 v70,2013-03-25 21:14:00,
2013-03-25 11:19:00,70.6,66.9,30.02,NNW,327,13.0,22.0,88,0.01,,,0.01,Weather View 32 v70,2013-03-25 21:19:00,
2013-03-25 11:24:00,70.7,66.6,30.03,North,1,10.0,18.0,87,0.01,,,0.01,Weather View 32 v70,2013-03-25 21:24:00,
2013-03-25 11:29:00,71.3,67.2,30.02,NW,305,10.0,18.0,87,0.01,,,0.01,Weather View 32 v70,2013-03-25 21:29:00,
2013-03-25 11:34:00,71.7,67.6,30.02,NW,325,11.0,18.0,87,0.01,,,0.01,Weather View 32 v70,2013-03-25 21:34:00,
2013-03-25 11:39:00,71.4,66.6,30.02,NNW,346,14.0,18.0,85,0.01,,,0.01,Weather View 32 v70,2013-03-25 21:39:00,
2013-03-25 11:44:00,71.5,66.7,30.02,North,359,10.0,18.0,85,0.01,,,0.01,Weather View 32 v70,2013-03-25 21:44:00,
2013-03-25 11:49:00,71.9,67.1,30.01,North,355,11.0,18.0,85,0.01,,,0.01,Weather View 32 v70,2013-03-25 21:49:00,
2013-03-25 11:54:00,71.9,66.8,30.02,NNW,343,10.0,18.0,84,0.01,,,0.01,Weather View 32 v70,2013-03-25 21:54:00,
2013-03-25 11:59:00,71.9,66.8,30.01,NNW,339,12.0,18.0,84,0.01,,,0.01,Weather View 32 v70,2013-03-25 21:59:00,
2013-03-25 12:05:00,71.9,66.8,30.01,North,357,10.0,18.0,84,0.00,,,0.01,Weather View 32 v70,2013-03-25 22:05:00,
2013-03-25 12:10:00,72.2,67.1,30.01,NNE,23,8.0,18.0,84,0.00,,,0.01,Weather View 32 v70,2013-03-25 22:10:00,
2013-03-25 12:15:00,72.2,66.7,30.00,NNW,343,13.0,18.0,83,0.00,,,0.01,Weather View 32 v70,2013-03-25 22:15:00,
2013-03-25 12:20:00,72.2,66.7,30.01,NNE,20,11.0,18.0,83,0.00,,,0.01,Weather View 32 v70,2013-03-25 22:20:00,
2013-03-25 12:25:00,72.4,66.6,30.00,North,353,8.0,18.0,82,-0.01,,,0.01,Weather View 32 v70,2013-03-25 22:25:00,
2013-03-25 12:30:00,72.0,66.2,29.99,North,351,19.0,20.0,82,-0.01,,,0.01,Weather View 32 v70,2013-03-25 22:30:00,
2013-03-25 12:35:00,71.7,66.2,30.00,NNW,345,15.0,20.0,83,0.00,,,0.01,Weather View 32 v70,2013-03-25 22:35:00,
2013-03-25 12:40:00,71.5,66.0,30.00,NNW,336,13.0,20.0,83,0.00,,,0.01,Weather View 32 v70,2013-03-25 22:40:00,
2013-03-25 12:45:00,71.3,65.8,29.99,NNE,22,8.0,20.0,83,0.00,,,0.01,Weather View 32 v70,2013-03-25 22:45:00,
2013-03-25 12:50:00,71.6,66.1,29.99,NNW,333,11.0,20.0,83,0.00,,,0.01,Weather View 32 v70,2013-03-25 22:50:00,
2013-03-25 13:00:00,70.7,66.0,29.98,NNW,336,15.0,20.0,85,0.00,,,0.01,Weather View 32 v70,2013-03-25 23:00:00,
2013-03-25 13:05:00,70.5,66.1,29.98,North,8,13.0,20.0,86,0.00,,,0.01,Weather View 32 v70,2013-03-25 23:05:00,
2013-03-25 13:10:00,70.6,66.2,29.98,NNW,347,16.0,20.0,86,0.00,,,0.01,Weather View 32 v70,2013-03-25 23:10:00,
2013-03-25 13:15:00,70.6,65.9,29.98,NNW,334,13.0,20.0,85,0.00,,,0.01,Weather View 32 v70,2013-03-25 23:15:00,
2013-03-25 13:20:00,70.8,66.0,29.98,NNE,26,14.0,20.0,85,0.00,,,0.01,Weather View 32 v70,2013-03-25 23:20:00,
2013-03-25 13:25:00,71.0,65.9,29.97,NNE,26,13.0,20.0,84,0.00,,,0.01,Weather View 32 v70,2013-03-25 23:25:00,
2013-03-25 13:30:00,71.2,65.8,29.98,North,358,18.0,20.0,83,0.00,,,0.01,Weather View 32 v70,2013-03-25 23:30:00,
2013-03-25 13:35:00,71.1,65.7,29.97,NNE,24,18.0,20.0,83,0.00,,,0.01,Weather View 32 v70,2013-03-25 23:35:00,
2013-03-25 13:40:00,70.8,65.7,29.97,NNW,333,13.0,20.0,84,0.00,,,0.01,Weather View 32 v70,2013-03-25 23:40:00,
2013-03-25 13:50:00,70.9,65.5,29.97,North,353,7.0,23.0,83,0.00,,,0.01,Weather View 32 v70,2013-03-25 23:50:00,
2013-03-25 13:55:00,70.8,65.7,29.97,NE,38,4.0,23.0,84,0.00,,,0.01,Weather View 32 v70,2013-03-25 23:55:00,
2013-03-25 14:00:00,70.6,65.5,29.97,NNE,24,9.0,23.0,84,0.00,,,0.01,Weather View 32 v70,2013-03-26 00:00:00,
2013-03-25 14:10:00,70.2,65.5,29.97,NNE,26,4.0,23.0,85,0.10,,,0.11,Weather View 32 v70,2013-03-26 00:10:00,
2013-03-25 14:15:00,69.8,65.4,29.97,NNW,334,8.0,23.0,86,0.14,,,0.15,Weather View 32 v70,2013-03-26 00:15:00,
2013-03-25 14:20:00,69.6,65.2,29.97,North,7,8.0,23.0,86,0.15,,,0.16,Weather View 32 v70,2013-03-26 00:20:00,
2013-03-25 14:27:00,69.7,65.0,29.97,NNE,12,8.0,23.0,85,0.15,,,0.16,Weather View 32 v70,2013-03-26 00:27:00,
2013-03-25 14:32:00,69.6,64.9,29.97,NW,318,8.0,23.0,85,0.15,,,0.16,Weather View 32 v70,2013-03-26 00:32:00,
2013-03-25 14:35:00,69.4,64.7,29.97,North,1,5.0,23.0,85,0.16,,,0.17,Weather View 32 v70,2013-03-26 00:35:00,
2013-03-25 14:38:00,69.4,64.7,29.97,NNW,337,14.0,23.0,85,0.16,,,0.17,Weather View 32 v70,2013-03-26 00:38:00,
2013-03-25 14:40:00,69.2,64.8,29.97,NNW,328,11.0,23.0,86,0.16,,,0.17,Weather View 32 v70,2013-03-26 00:40:00,
2013-03-25 14:43:00,69.0,64.6,29.97,NNW,331,15.0,23.0,86,0.17,,,0.18,Weather View 32 v70,2013-03-26 00:43:00,
2013-03-25 14:48:00,69.1,64.7,29.96,WNW,299,8.0,21.0,86,0.17,,,0.18,Weather View 32 v70,2013-03-26 00:48:00,
2013-03-25 14:53:00,69.2,64.5,29.96,NNW,334,15.0,21.0,85,0.17,,,0.18,Weather View 32 v70,2013-03-26 00:53:00,
2013-03-25 15:00:00,69.2,64.5,29.96,NW,318,11.0,21.0,85,0.17,,,0.18,Weather View 32 v70,2013-03-26 01:00:00,
2013-03-25 15:05:00,69.2,64.5,29.96,NNW,328,15.0,21.0,85,0.16,,,0.19,Weather View 32 v70,2013-03-26 01:05:00,
2013-03-25 15:10:00,69.1,64.4,29.96,NNE,12,10.0,21.0,85,0.08,,,0.19,Weather View 32 v70,2013-03-26 01:10:00,
2013-03-25 15:15:00,68.9,64.2,29.96,North,351,16.0,21.0,85,0.04,,,0.19,Weather View 32 v70,2013-03-26 01:15:00,
2013-03-25 15:20:00,68.7,64.0,29.96,NNW,345,8.0,21.0,85,0.03,,,0.19,Weather View 32 v70,2013-03-26 01:20:00,
2013-03-25 15:25:00,68.6,63.9,29.96,North,356,12.0,21.0,85,0.03,,,0.19,Weather View 32 v70,2013-03-26 01:25:00,
2013-03-25 15:32:00,68.6,63.6,29.96,NNW,335,15.0,21.0,84,0.03,,,0.19,Weather View 32 v70,2013-03-26 01:32:00,
2013-03-25 15:37:00,68.8,63.8,29.96,NW,324,18.0,21.0,84,0.02,,,0.19,Weather View 32 v70,2013-03-26 01:37:00,
2013-03-25 15:43:00,68.6,63.6,29.96,NNE,22,11.0,20.0,84,0.01,,,0.19,Weather View 32 v70,2013-03-26 01:43:00,
2013-03-25 15:48:00,68.8,63.4,29.96,NNW,340,16.0,20.0,83,0.01,,,0.19,Weather View 32 v70,2013-03-26 01:48:00,
2013-03-25 15:54:00,69.1,63.7,29.96,NW,311,9.0,20.0,83,0.01,,,0.19,Weather View 32 v70,2013-03-26 01:54:00,
2013-03-25 16:00:00,69.2,63.5,29.96,North,4,13.0,20.0,82,0.00,,,0.19,Weather View 32 v70,2013-03-26 02:00:00,
2013-03-25 16:07:00,69.2,63.8,29.96,NNW,337,14.0,19.0,83,0.00,,,0.19,Weather View 32 v70,2013-03-26 02:07:00,
2013-03-25 16:10:00,69.3,63.5,29.96,NW,312,11.0,19.0,82,0.00,,,0.19,Weather View 32 v70,2013-03-26 02:10:00,
2013-03-25 16:14:00,69.2,63.8,29.96,NNW,345,15.0,19.0,83,0.00,,,0.19,Weather View 32 v70,2013-03-26 02:14:00,
2013-03-25 16:15:00,69.2,63.8,29.96,NW,324,11.0,19.0,83,0.00,,,0.19,Weather View 32 v70,2013-03-26 02:15:00,
2013-03-25 16:19:00,69.3,63.9,29.96,NW,321,10.0,19.0,83,0.00,,,0.19,Weather View 32 v70,2013-03-26 02:19:00,
2013-03-25 16:20:00,69.2,63.8,29.97,NNW,329,8.0,19.0,83,0.00,,,0.19,Weather View 32 v70,2013-03-26 02:20:00,
2013-03-25 16:24:00,69.2,63.8,29.97,North,8,7.0,19.0,83,0.00,,,0.19,Weather View 32 v70,2013-03-26 02:24:00,
2013-03-25 16:25:00,69.2,63.8,29.97,North,1,11.0,19.0,83,0.00,,,0.19,Weather View 32 v70,2013-03-26 02:25:00,
2013-03-25 16:30:00,69.3,63.9,29.96,NNW,346,13.0,19.0,83,0.00,,,0.20,Weather View 32 v70,2013-03-26 02:30:00,
2013-03-25 16:35:00,69.5,64.1,29.97,NE,38,9.0,19.0,83,0.01,,,0.20,Weather View 32 v70,2013-03-26 02:35:00,
2013-03-25 16:41:00,69.7,64.3,29.96,NNW,334,13.0,19.0,83,0.01,,,0.20,Weather View 32 v70,2013-03-26 02:41:00,
2013-03-25 16:46:00,69.8,64.0,29.96,North,6,13.0,19.0,82,0.01,,,0.20,Weather View 32 v70,2013-03-26 02:46:00,
2013-03-25 16:53:00,69.9,64.1,29.95,NNW,343,12.0,19.0,82,0.01,,,0.20,Weather View 32 v70,2013-03-26 02:53:00,
2013-03-25 16:58:00,70.0,64.2,29.96,North,3,11.0,19.0,82,0.01,,,0.20,Weather View 32 v70,2013-03-26 02:58:00,
2013-03-25 17:03:00,70.1,64.0,29.97,North,359,9.0,19.0,81,0.01,,,0.20,Weather View 32 v70,2013-03-26 03:03:00,
2013-03-25 17:09:00,70.3,64.2,29.97,NW,314,6.0,19.0,81,0.01,,,0.20,Weather View 32 v70,2013-03-26 03:09:00,
2013-03-25 17:10:00,70.3,64.2,29.97,NNW,348,10.0,19.0,81,0.01,,,0.20,Weather View 32 v70,2013-03-26 03:10:00,
2013-03-25 17:14:00,70.3,64.2,29.97,North,7,5.0,19.0,81,0.01,,,0.20,Weather View 32 v70,2013-03-26 03:14:00,
2013-03-25 17:19:00,70.3,64.2,29.97,NNE,22,9.0,19.0,81,0.01,,,0.20,Weather View 32 v70,2013-03-26 03:19:00,
2013-03-25 17:24:00,70.3,63.8,29.97,NNW,341,10.0,19.0,80,0.01,,,0.20,Weather View 32 v70,2013-03-26 03:24:00,
2013-03-25 17:29:00,70.3,63.8,29.97,NNW,330,8.0,19.0,80,0.01,,,0.20,Weather View 32 v70,2013-03-26 03:29:00,
2013-03-25 17:35:00,70.2,64.1,29.97,NNE,22,12.0,19.0,81,0.00,,,0.20,Weather View 32 v70,2013-03-26 03:35:00,
2013-03-25 17:41:00,70.2,63.7,29.97,NW,323,7.0,19.0,80,0.00,,,0.20,Weather View 32 v70,2013-03-26 03:41:00,
2013-03-25 17:47:00,70.2,63.7,29.97,North,7,10.0,19.0,80,0.00,,,0.20,Weather View 32 v70,2013-03-26 03:47:00,
2013-03-25 17:53:00,70.1,63.3,29.97,NW,322,10.0,19.0,79,0.00,,,0.20,Weather View 32 v70,2013-03-26 03:53:00,
2013-03-25 17:58:00,70.0,63.5,29.97,NW,320,5.0,19.0,80,0.00,,,0.20,Weather View 32 v70,2013-03-26 03:58:00,
2013-03-25 18:00:00,70.1,63.6,29.97,North,360,6.0,19.0,80,0.00,,,0.20,Weather View 32 v70,2013-03-26 04:00:00,
2013-03-25 18:05:00,70.2,63.7,29.98,North,349,5.0,19.0,80,0.00,,,0.20,Weather View 32 v70,2013-03-26 04:05:00,
2013-03-25 18:10:00,70.3,63.8,29.97,NNW,341,13.0,19.0,80,0.00,,,0.20,Weather View 32 v70,2013-03-26 04:10:00,
2013-03-25 18:15:00,70.3,63.5,29.97,NW,325,9.0,16.0,79,0.00,,,0.20,Weather View 32 v70,2013-03-26 04:15:00,
2013-03-25 18:20:00,70.3,63.5,29.97,NNE,16,6.0,16.0,79,0.00,,,0.20,Weather View 32 v70,2013-03-26 04:20:00,
2013-03-25 18:25:00,70.2,63.7,29.98,NNW,346,12.0,16.0,80,0.00,,,0.20,Weather View 32 v70,2013-03-26 04:25:00,
2013-03-25 18:30:00,70.2,63.7,29.98,North,353,6.0,16.0,80,0.00,,,0.20,Weather View 32 v70,2013-03-26 04:30:00,
2013-03-25 18:35:00,70.3,63.8,29.98,NW,323,7.0,16.0,80,0.00,,,0.20,Weather View 32 v70,2013-03-26 04:35:00,
2013-03-25 18:40:00,70.6,63.7,29.98,NNW,341,7.0,16.0,79,0.00,,,0.20,Weather View 32 v70,2013-03-26 04:40:00,
2013-03-25 18:45:00,70.9,63.7,29.99,North,355,3.0,16.0,78,0.00,,,0.20,Weather View 32 v70,2013-03-26 04:45:00,
2013-03-25 18:50:00,70.5,63.6,29.99,North,351,4.0,16.0,79,0.00,,,0.20,Weather View 32 v70,2013-03-26 04:50:00,
2013-03-25 18:55:00,70.4,63.9,29.99,NW,322,5.0,16.0,80,0.00,,,0.20,Weather View 32 v70,2013-03-26 04:55:00,
2013-03-25 19:00:00,70.5,63.6,29.99,North,349,3.0,16.0,79,0.00,,,0.20,Weather View 32 v70,2013-03-26 05:00:00,
2013-03-25 19:05:00,70.3,63.8,30.00,WNW,291,2.0,16.0,80,0.00,,,0.20,Weather View 32 v70,2013-03-26 05:05:00,
2013-03-25 19:10:00,70.4,64.3,30.00,NW,307,6.0,16.0,81,0.00,,,0.20,Weather View 32 v70,2013-03-26 05:10:00,
2013-03-25 19:15:00,70.4,64.6,30.00,NNW,328,1.0,13.0,82,0.00,,,0.20,Weather View 32 v70,2013-03-26 05:15:00,
2013-03-25 19:20:00,70.3,64.5,30.00,NNW,332,3.0,13.0,82,0.00,,,0.20,Weather View 32 v70,2013-03-26 05:20:00,
2013-03-25 19:25:00,70.0,63.5,30.00,NNE,14,4.0,13.0,80,0.00,,,0.20,Weather View 32 v70,2013-03-26 05:25:00,
2013-03-25 19:30:00,70.0,63.5,30.00,North,357,5.0,12.0,80,0.00,,,0.20,Weather View 32 v70,2013-03-26 05:30:00,
2013-03-25 19:35:00,70.0,63.2,30.00,NNW,346,8.0,12.0,79,0.00,,,0.20,Weather View 32 v70,2013-03-26 05:35:00,
2013-03-25 19:40:00,70.1,62.9,30.00,North,354,5.0,12.0,78,0.00,,,0.20,Weather View 32 v70,2013-03-26 05:40:00,
2013-03-25 19:45:00,70.2,62.6,30.00,NW,309,9.0,18.0,77,0.00,,,0.20,Weather View 32 v70,2013-03-26 05:45:00,
2013-03-25 19:50:00,70.3,62.3,30.00,NNE,26,4.0,18.0,76,0.00,,,0.20,Weather View 32 v70,2013-03-26 05:50:00,
2013-03-25 19:55:00,70.3,62.3,30.00,NW,311,8.0,18.0,76,0.00,,,0.20,Weather View 32 v70,2013-03-26 05:55:00,
2013-03-25 20:00:00,70.4,62.1,30.00,NNW,329,9.0,18.0,75,0.00,,,0.20,Weather View 32 v70,2013-03-26 06:00:00,
2013-03-25 20:05:00,70.4,61.7,30.00,North,7,9.0,18.0,74,0.00,,,0.20,Weather View 32 v70,2013-03-26 06:05:00,
2013-03-25 20:10:00,70.6,61.5,30.00,NW,310,11.0,18.0,73,0.00,,,0.20,Weather View 32 v70,2013-03-26 06:10:00,
2013-03-25 20:15:00,70.9,61.4,30.00,WNW,297,10.0,18.0,72,0.00,,,0.20,Weather View 32 v70,2013-03-26 06:15:00,
2013-03-25 20:20:00,70.8,61.7,30.00,North,359,14.0,18.0,73,0.00,,,0.20,Weather View 32 v70,2013-03-26 06:20:00,
2013-03-25 20:25:00,70.9,61.4,30.00,WNW,298,10.0,18.0,72,0.00,,,0.20,Weather View 32 v70,2013-03-26 06:25:00,
2013-03-25 20:30:00,70.9,61.8,30.01,NW,314,10.0,18.0,73,0.00,,,0.20,Weather View 32 v70,2013-03-26 06:30:00,
2013-03-25 20:35:00,71.0,61.9,30.01,NW,315,9.0,18.0,73,0.00,,,0.20,Weather View 32 v70,2013-03-26 06:35:00,
2013-03-25 20:40:00,71.1,61.6,30.01,NW,307,10.0,18.0,72,0.00,,,0.20,Weather View 32 v70,2013-03-26 06:40:00,
2013-03-25 20:45:00,71.1,61.6,30.01,WNW,292,7.0,18.0,72,0.00,,,0.20,Weather View 32 v70,2013-03-26 06:45:00,
2013-03-25 20:50:00,71.2,61.3,30.02,WNW,284,8.0,18.0,71,0.00,,,0.20,Weather View 32 v70,2013-03-26 06:50:00,
2013-03-25 20:55:00,71.3,61.4,30.01,WNW,289,11.0,18.0,71,0.00,,,0.20,Weather View 32 v70,2013-03-26 06:55:00,
2013-03-25 21:00:00,71.4,61.5,30.02,NW,320,9.0,18.0,71,0.00,,,0.20,Weather View 32 v70,2013-03-26 07:00:00,
2013-03-25 21:05:00,71.5,61.2,30.01,NW,318,13.0,18.0,70,0.00,,,0.20,Weather View 32 v70,2013-03-26 07:05:00,
2013-03-25 21:10:00,71.6,61.3,30.02,North,356,11.0,18.0,70,0.00,,,0.20,Weather View 32 v70,2013-03-26 07:10:00,
2013-03-25 21:15:00,71.7,61.4,30.02,WNW,295,9.0,18.0,70,0.00,,,0.20,Weather View 32 v70,2013-03-26 07:15:00,
2013-03-25 21:20:00,71.6,61.3,30.02,NNW,347,7.0,18.0,70,0.00,,,0.20,Weather View 32 v70,2013-03-26 07:20:00,
2013-03-25 21:25:00,71.6,61.3,30.02,NW,324,16.0,16.0,70,0.00,,,0.20,Weather View 32 v70,2013-03-26 07:25:00,
2013-03-25 21:31:00,71.8,61.0,30.02,NW,321,14.0,18.0,69,0.00,,,0.20,Weather View 32 v70,2013-03-26 07:31:00,
2013-03-25 21:36:00,71.8,61.0,30.02,NW,321,13.0,18.0,69,0.00,,,0.20,Weather View 32 v70,2013-03-26 07:36:00,
2013-03-25 21:41:00,71.9,60.7,30.03,NW,307,12.0,18.0,68,0.00,,,0.20,Weather View 32 v70,2013-03-26 07:41:00,
2013-03-25 21:46:00,72.0,60.8,30.03,NW,310,9.0,18.0,68,0.00,,,0.20,Weather View 32 v70,2013-03-26 07:46:00,
2013-03-25 21:51:00,72.0,60.8,30.03,NW,324,11.0,18.0,68,0.00,,,0.20,Weather View 32 v70,2013-03-26 07:51:00,
2013-03-25 21:56:00,72.1,60.5,30.03,NW,320,9.0,18.0,67,0.00,,,0.20,Weather View 32 v70,2013-03-26 07:56:00,
2013-03-25 22:01:00,72.1,60.1,30.03,NNW,341,8.0,18.0,66,0.00,,,0.20,Weather View 32 v70,2013-03-26 08:01:00,
2013-03-25 22:06:00,72.1,59.6,30.03,NW,320,13.0,18.0,65,0.00,,,0.20,Weather View 32 v70,2013-03-26 08:06:00,
2013-03-25 22:11:00,72.1,59.6,30.04,NW,313,8.0,18.0,65,0.00,,,0.20,Weather View 32 v70,2013-03-26 08:11:00,
2013-03-25 22:16:00,71.9,59.9,30.04,NW,312,11.0,18.0,66,0.00,,,0.20,Weather View 32 v70,2013-03-26 08:16:00,
2013-03-25 22:21:00,72.0,59.6,30.04,North,6,7.0,18.0,65,0.00,,,0.20,Weather View 32 v70,2013-03-26 08:21:00,
2013-03-25 22:26:00,71.9,59.0,30.04,WNW,295,8.0,18.0,64,0.00,,,0.20,Weather View 32 v70,2013-03-26 08:26:00,
2013-03-25 22:31:00,71.8,58.5,30.04,NW,322,7.0,18.0,63,0.00,,,0.20,Weather View 32 v70,2013-03-26 08:31:00,
2013-03-25 22:36:00,72.0,57.8,30.03,NW,314,4.0,18.0,61,0.00,,,0.20,Weather View 32 v70,2013-03-26 08:36:00,
2013-03-25 22:41:00,71.9,57.7,30.04,NNW,335,15.0,18.0,61,0.00,,,0.20,Weather View 32 v70,2013-03-26 08:41:00,
2013-03-25 22:46:00,71.9,57.2,30.03,North,351,15.0,18.0,60,0.00,,,0.20,Weather View 32 v70,2013-03-26 08:46:00,
2013-03-25 22:51:00,71.8,57.1,30.03,NW,307,11.0,18.0,60,0.00,,,0.20,Weather View 32 v70,2013-03-26 08:51:00,
2013-03-25 22:56:00,71.7,57.0,30.03,NW,325,12.0,18.0,60,0.00,,,0.20,Weather View 32 v70,2013-03-26 08:56:00,
2013-03-25 23:01:00,71.6,57.4,30.03,North,358,8.0,18.0,61,0.00,,,0.20,Weather View 32 v70,2013-03-26 09:01:00,
2013-03-25 23:06:00,70.7,58.3,30.03,NNW,343,6.0,18.0,65,0.00,,,0.20,Weather View 32 v70,2013-03-26 09:06:00,
2013-03-25 23:11:00,70.0,58.1,30.03,NNE,20,7.0,18.0,66,-0.09,,,0.20,Weather View 32 v70,2013-03-26 09:11:00,
2013-03-25 23:16:00,70.1,58.2,30.03,NNW,333,9.0,18.0,66,0.00,,,0.20,Weather View 32 v70,2013-03-26 09:16:00,
2013-03-25 23:21:00,70.4,58.5,30.04,NNE,24,7.0,16.0,66,0.00,,,0.20,Weather View 32 v70,2013-03-26 09:21:00,
2013-03-25 23:26:00,70.2,59.1,30.03,North,360,13.0,20.0,68,0.00,,,0.20,Weather View 32 v70,2013-03-26 09:26:00,
2013-03-25 23:31:00,69.7,59.8,30.03,NNW,337,11.0,22.0,71,0.00,,,0.20,Weather View 32 v70,2013-03-26 09:31:00,
2013-03-25 23:37:00,69.7,59.8,30.03,NNW,330,11.0,22.0,71,0.00,,,0.20,Weather View 32 v70,2013-03-26 09:37:00,
2013-03-25 23:42:00,69.8,59.9,30.02,NW,325,18.0,22.0,71,0.00,,,0.20,Weather View 32 v70,2013-03-26 09:42:00,
2013-03-25 23:47:00,70.0,59.7,30.02,NNW,329,18.0,23.0,70,0.00,,,0.20,Weather View 32 v70,2013-03-26 09:47:00,
2013-03-25 23:52:00,70.3,59.2,30.02,NW,312,14.0,23.0,68,0.00,,,0.20,Weather View 32 v70,2013-03-26 09:52:00,
2013-03-25 23:57:00,70.4,59.3,30.02,WNW,301,11.0,23.0,68,-0.09,,,0.20,Weather View 32 v70,2013-03-26 09:57:00,